Location: Colombotte
(47.6623°N, 6.2847°E)
Time: 01:33:43
(UTC+00:00)

Daily predictions for brighter satellites

Satellite Brightness Start Highest point End
(mag) Time Altitude Azimuth Time Altitude Azimuth Time Altitude Azimuth
Cosmos 2344 4.4 02:45:54 65° NE 02:46:13 65° NE 02:58:39 10° SE
ATLAS 2AS CENTAUR R/B 4.0 02:52:20 40° NE 02:52:20 40° NE 02:56:58 10° NE
Lacrosse 5 4.0 03:33:29 20° NE 03:33:29 20° NE 03:35:07 10° NE
ATLAS 3B R/B 3.8 03:36:30 33° SSE 03:36:30 33° SSE 03:40:17 10° SSE
CZ-4C R/B 3.4 03:47:08 34° NNE 03:47:08 34° NNE 03:50:44 10° NE
COSMO-SKYMED 1 4.2 03:55:59 10° SE 03:59:50 32° ENE 04:00:08 32° ENE
Cosmos 1844 Rocket 3.4 04:02:42 44° NNE 04:02:42 44° NNE 04:06:30 10° NNE
COSMOS 2406 4.2 04:02:25 34° NNE 04:04:10 43° NE 04:09:40 10° SE
USA 305 3.9 04:16:56 46° E 04:16:56 46° E 04:20:03 10° ESE
ATLAS 5 CENTAUR R/B 2.5 04:17:17 40° SE 04:17:26 40° ESE 04:21:36 10° NE
NOSS 3-4 (A) 4.5 04:22:14 31° NNW 04:22:14 31° NNW 04:27:06 10° NE
NOSS 3-4 (C) 4.5 04:22:19 31° NNW 04:22:19 31° NNW 04:27:13 10° NE
Nadezhda 3 Rocket 4.2 04:15:44 10° N 04:22:01 70° E 04:28:12 10° SSE
USA 306 3.5 04:25:27 57° ESE 04:25:27 57° ESE 04:28:56 10° ESE
Cosmos 1048 Rocket 4.4 04:28:12 35° N 04:30:16 60° ENE 04:35:23 10° SE
Cosmos 2263 Rocket 4.3 04:33:14 13° N 04:33:14 13° N 04:34:20 10° N
Uosat 12 SS-18 rocket 4.4 04:32:43 69° NW 04:33:22 89° NE 04:39:18 10° SE
ADEOS 3.4 04:28:13 10° NNE 04:33:29 88° WNW 04:38:42 10° SSW
BREEZE-M DEB (TANK) 3.6 04:34:16 42° ESE 04:34:16 42° ESE 04:37:11 10° E
FENGYUN 3A 3.5 04:28:33 10° N 04:33:58 75° WNW 04:36:29 33° SSW
Meteor 1-27 Rocket 4.1 04:29:03 10° N 04:34:48 67° ENE 04:40:41 10° SSE
Cosmos 1844 3.8 04:37:52 54° NW 04:37:52 54° NW 04:42:55 10° NNE
ATLAS 2AS CENTAUR R/B 3.5 04:39:48 36° NW 04:40:54 38° NNW 04:48:00 10° NE
Meteor 1-10 Rocket 4.1 04:41:21 42° NNW 04:43:13 69° W 04:48:50 10° S
Cosmos 1610 Rocket 4.4 04:40:29 10° S 04:46:52 86° W 04:53:18 10° N
SKYMED 2 3.4 04:43:26 10° SSE 04:47:47 86° WSW 04:48:45 54° NNW
METEOR-M 4.0 04:43:29 10° N 04:48:49 71° WNW 04:54:08 10° SSW
SJ-12 3.8 04:46:30 10° NNE 04:50:34 84° E 04:54:38 10° SSW
Cosmos 1707 Rocket 4.0 04:47:28 18° N 04:50:38 60° ENE 04:54:55 10° SSE
Cosmos 372 Rocket 3.8 04:49:28 37° SW 04:51:28 69° WNW 04:56:35 10° NNE
COSMOS 2455 2.8 04:49:18 36° SW 04:51:48 67° NW 04:57:51 10° NNE
Cosmos 2150 Rocket 4.2 04:46:47 10° SSW 04:52:01 70° ESE 04:57:13 10° NNE
Cosmos 2154 Rocket 3.9 04:48:56 10° SSW 04:55:10 76° W 05:01:31 10° N
Cosmos 2298 Rocket 4.1 04:50:16 10° SSW 04:55:32 81° ESE 05:00:52 10° NNE
PSLV R/B 3.8 04:53:53 10° SSE 04:58:00 86° ENE 04:59:50 32° NNW
ALOS 3.6 04:54:43 10° N 04:56:56 25° NNW 04:56:56 25° NNW
Sich 1 3.0 04:56:11 10° S 05:00:37 86° E 05:05:04 10° N
Cosmos 1833 Rocket 2.6 04:57:52 25° NNW 05:01:17 87° ENE 05:06:54 10° SSE
ERS-2 4.3 04:58:25 10° SSW 04:59:08 15° SSW 04:59:08 15° SSW
Cosmos 1295 Rocket 4.3 04:55:46 10° S 05:01:52 81° W 05:08:01 10° N
Cosmos 2327 Rocket 4.3 04:58:04 10° SSW 05:04:04 63° WNW 05:10:10 10° N
Cosmos 2082 Rocket 2.7 05:01:52 15° NNW 05:06:33 58° ENE 05:12:11 10° SE
Cosmos 2074 Rocket 4.3 05:00:58 10° SW 05:06:48 42° WNW 05:12:41 10° N
FALCON 9 DEB 4.2 05:07:03 30° NNE 05:07:03 30° NNE 05:09:46 10° ENE
SL-4 R/B 1.9 05:06:43 55° WSW 05:07:09 60° SSW 05:10:47 10° SE
EXPRESS MD2 3.9 05:07:42 42° WSW 05:08:36 50° SSW 05:14:55 10° SE
USA 290 3.4 05:07:38 24° N 05:09:06 40° ENE 05:12:10 10° SE
Cosmos 2228 Rocket 4.2 05:11:09 27° SW 05:11:09 27° SW 05:13:40 10° SSW
Cosmos 1437 Rocket 3.8 05:12:49 28° SW 05:12:49 28° SW 05:15:01 10° SSW
Lacrosse 5 3.0 05:12:41 25° NNW 05:14:04 29° N 05:18:28 10° NE
EO 1 Delta rocket 3.7 05:13:03 10° S 05:17:42 65° W 05:22:23 10° NNW
Cosmos 2341 Rocket 3.9 05:15:39 10° S 05:21:51 86° W 05:28:09 10° N
ERBS 3.9 05:21:36 22° N 05:22:33 25° NNE 05:25:21 10° ENE
ATLAS 3B R/B 4.4 05:23:50 14° WSW 05:23:50 14° WSW 05:26:13 10° SW
USA 307 3.4 05:22:34 33° W 05:23:59 46° SW 05:28:06 10° SSE
Meteor 2-12 Rocket 4.4 05:18:27 10° SSW 05:24:36 75° W 05:30:48 10° N
Meteor PRIRODA 3.7 05:22:25 10° N 05:26:06 55° WNW 05:29:45 10° SSW
CZ-4B R/B 3.1 05:23:53 10° N 05:28:13 53° WNW 05:32:22 10° SSW
USA 308 3.5 05:28:59 29° W 05:30:37 42° SW 05:34:40 10° SSE
SJ-7 4.4 05:28:31 10° NNE 05:32:39 86° E 05:36:49 10° SSW
CZ-4C R/B 3.5 05:32:20 20° NW 05:34:24 24° NNW 05:39:40 10° NE
Cosmos 2278 Rocket 2.1 05:29:18 10° SSW 05:34:57 76° WNW 05:40:40 10° NNE
COSMO-SKYMED 1 3.4 05:32:15 10° SSW 05:36:00 28° W 05:37:21 24° WNW
FALCON 9 DEB 3.9 05:35:47 26° NNW 05:36:54 35° NNE 05:39:54 10° E
Okean O Rocket 3.3 05:33:39 10° NNE 05:37:49 38° E 05:41:57 10° SSE
Cosmos 1862 Rocket 3.5 05:33:33 10° N 05:38:01 85° WSW 05:42:24 10° S
Envisat 3.1 05:33:39 10° NNE 05:38:46 79° ESE 05:43:51 10° S
Cosmos 1805 Rocket 4.3 05:36:52 10° SW 05:40:48 30° WNW 05:44:45 10° N
deb Chang Zheng 4 4.4 05:37:22 10° N 05:41:04 28° WNW 05:44:46 10° WSW
NOAA 6 4.2 05:37:05 10° NNE 05:42:13 75° ESE 05:47:20 10° S
Cosmos 494 Rocket 4.2 05:39:47 14° NW 05:43:58 49° WSW 05:48:52 10° S
YAOGAN 6 2.4 05:40:32 10° NNE 05:44:03 89° WNW 05:47:32 10° SSW
Cosmos 1515 3.9 05:41:16 10° N 05:45:05 70° E 05:48:51 10° SSE
Cosmos 1844 Rocket 4.0 05:44:24 18° WNW 05:45:35 19° NW 05:49:36 10° N
SMAP 3.8 05:42:41 10° NNE 05:47:17 56° E 05:51:51 10° S
Cosmos 1933 Rocket 4.4 05:43:27 10° S 05:47:46 55° E 05:52:08 10° NNE
COSMOS 2406 3.9 05:44:31 17° NW 05:48:23 36° WSW 05:53:34 10° S
Cosmos 1666 Rocket 3.7 05:44:42 10° SSW 05:48:53 47° WNW 05:53:07 10° N
Cosmos 1689 Rocket 4.1 05:50:54 10° SW 05:51:47 14° WSW 05:51:47 14° WSW
BREEZE-M (TANK) 3.5 05:46:09 10° SW 05:52:47 48° SSE 05:55:16 10° E
USA 305 4.1 05:53:05 17° W 05:55:29 27° SW 05:59:07 10° SSE
Cosmos 1242 Rocket 2.9 05:55:35 10° NNW 05:59:05 43° W 06:02:34 10° SSW
H-2A R/B 2.1 05:55:58 10° NNE 05:59:47 78° WNW 06:03:38 10° SSW
Meteor 2-4 Rocket 4.3 05:54:18 10° N 06:00:05 62° ENE 06:05:39 10° SSE
Cosmos 1271 Rocket 3.6 05:56:32 10° N 06:00:19 52° ENE 06:04:08 10° SSE
ATLAS 5 CENTAUR R/B 2.3 05:58:53 13° W 06:02:08 32° NW 06:06:23 10° NNE
USA 306 4.3 06:01:36 14° W 06:04:16 24° SW 06:07:43 10° S
MOS 1 Rocket 4.0 05:59:50 10° SSW 06:04:32 39° W 06:09:30 10° NNW
CZ-2C R/B 2.7 06:00:36 10° SSE 06:06:01 90° E 06:11:21 10° NNW
Cosmos 2366 rocket 4.0 06:01:42 10° SSW 06:07:57 65° WNW 06:14:11 10° N
Cosmos 1633 Rocket 3.6 06:04:49 10° SW 06:08:54 37° WNW 06:13:00 10° N
USA 229 DEB 4.0 06:01:40 10° NW 06:08:59 85° NE 06:16:43 10° SE
USA 229 4.0 06:01:47 10° NW 06:09:06 84° NE 06:16:48 10° SE
NOAA 12 4.2 06:05:03 10° NNE 06:10:21 83° ESE 06:15:35 10° SSW
Okean 1-7 3.3 06:06:19 10° N 06:10:37 70° E 06:14:50 10° SSE
USA 81 4.5 06:05:56 10° SW 06:10:50 39° WNW 06:15:46 10° N
FALCON 9 DEB 3.5 06:10:17 13° NW 06:12:55 47° NNE 06:16:04 10° E
Cosmos 2218 Rocket 4.1 06:07:36 10° SSW 06:13:42 57° WNW 06:19:47 10° N
H-2A R/B 3.7 06:10:31 10° N 06:13:48 27° WNW 06:17:04 10° SW
Cosmos 1125 Rocket 4.0 06:09:51 10° SW 06:14:39 37° WNW 06:19:28 10° N
CORIOLIS 4.4 06:09:48 10° NNE 06:15:17 78° ESE 06:20:42 10° S
Meteor 1-20 Rocket 4.5 06:10:32 10° SSW 06:16:06 50° WNW 06:21:47 10° N
GENESIS II 4.2 06:13:12 10° SW 06:17:13 70° NW 06:21:15 10° NE
NOSS 3-1 (C) 4.2 06:10:27 10° NW 06:17:55 74° SW 06:26:35 10° SSE
FALCON 9 DEB 3.5 06:15:49 12° NW 06:18:41 49° NNE 06:21:50 10° E
Cosmos 1269 Rocket 4.3 06:14:57 10° NNW 06:20:03 49° WSW 06:25:05 10° S
Iridium 2 3.7 06:18:18 10° N 06:22:05 90° E 06:25:50 10° S
NOSS 3-1 (A) 4.2 06:15:47 10° NW 06:23:15 86° NE 06:31:56 10° SE
FengYun 1-2 T 4.5 06:20:31 10° NNE 06:26:04 78° ESE 06:31:36 10° S
NOSS 2-1 (E) 2.8 06:25:55 10° SW 06:29:14 70° NW 06:32:50 10° NE
AQUARIUS 4.2 06:28:21 10° N 06:32:48 60° WNW 06:37:13 10° SSW
ATLAS 2AS CENTAUR R/B 4.2 06:28:02 10° NW 06:34:10 24° N 06:40:03 10° NE
Cosmos 2242 Rocket 3.8 06:31:08 10° NNW 06:35:24 49° W 06:39:38 10° SSW
